Fairfield, IL

11:58 PM CST on December 11, 2019 (GMT -0600)
Fairfield Municipal

Weather History for KFWC - October, 2019

Change the Weather History Date:

Saturday, October 12, 2019

  Actual Average (KEVV) Record (KEVV)
Temperature  
Mean Temperature 45 °F -  
Max Temperature 57 °F 73 °F 87 °F (1989)
Min Temperature 33 °F 47 °F 29 °F (1988)
Degree Days  
Heating Degree Days 20    
Moisture  
Dew Point 35 °F    
Average Humidity 72    
Maximum Humidity 100    
Minimum Humidity 37    
Precipitation  
Precipitation 0.00 in - - ()
Sea Level Pressure  
Sea Level Pressure 30.14 in    
Wind  
Wind Speed 1 mph ()    
Max Wind Speed 8 mph    
Max Gust Speed -    
Visibility 9.5 miles    
Events      
Averages and records for this station are not official NWS values.
T = Trace of Precipitation, MM = Missing Value Source: Averaged Metar Reports

Daily Weather History Graph

Daily Weather History Graph

Search for Another Location

Airport or City:

Astronomy

Oct. 12, 2019 Rise Set
Actual Time 6:59 AM CDT 6:20 PM CDT
Civil Twilight 6:32 AM CDT 6:46 PM CDT
Nautical Twilight 6:02 AM CDT 7:17 PM CDT
Astronomical Twilight 5:31 AM CDT 7:47 PM CDT
Moon 6:14 PM CDT 5:38 AM CDT
Length of Visible Light 12h 13m
Length of Day
11h 20m
Waxing Gibbous, 99% of the Moon is Illuminated
Oct 12
Waxing Gibbous
Oct 13
Full
Oct 21
Last Quarter
Oct 27
New
Nov 4
First Quarter

Hourly Weather History & Observations

Time (CDT) Temp. Windchill Dew Point Humidity Pressure Visibility Wind Dir Wind Speed Gust Speed Precip Events Conditions
12:15 AM 38.5 °F - 38.5 °F 100% 30.18 in 10.0 mi Calm Calm - N/A   Clear
12:35 AM 38.5 °F - 37.2 °F 95% 30.19 in 10.0 mi Calm Calm - N/A   Clear
12:55 AM 38.1 °F - 37.4 °F 97% 30.19 in 10.0 mi Calm Calm - N/A   Clear
1:15 AM 41.7 °F - 34.3 °F 75% 30.19 in 10.0 mi Calm Calm - N/A   Clear
1:35 AM 41.0 °F - 35.2 °F 80% 30.19 in 10.0 mi Calm Calm - N/A   Clear
1:55 AM 40.1 °F - 35.8 °F 85% 30.19 in 10.0 mi Calm Calm - N/A   Clear
2:15 AM 38.7 °F - 36.1 °F 91% 30.19 in 10.0 mi Calm Calm - N/A   Clear
2:35 AM 37.8 °F - 36.9 °F 97% 30.19 in 10.0 mi Calm Calm - N/A   Clear
2:55 AM 37.0 °F - 37.0 °F 100% 30.18 in 10.0 mi Calm Calm - N/A   Clear
3:15 AM 37.4 °F - 36.9 °F 98% 30.18 in 10.0 mi Calm Calm - N/A   Clear
3:35 AM 37.6 °F - 36.9 °F 97% 30.18 in 10.0 mi Calm Calm - N/A   Clear
3:55 AM 37.4 °F - 36.5 °F 97% 30.19 in 10.0 mi Calm Calm - N/A   Clear
4:15 AM 37.4 °F - 36.7 °F 97% 30.19 in 10.0 mi Calm Calm - N/A   Clear
4:35 AM 36.5 °F - 36.5 °F 100% 30.19 in 10.0 mi Calm Calm - N/A   Clear
4:55 AM 35.4 °F - 35.4 °F 100% 30.19 in 10.0 mi Calm Calm - N/A   Clear
5:15 AM 34.0 °F - 34.0 °F 100% 30.20 in 5.0 mi Calm Calm - N/A   Clear
5:35 AM 34.3 °F - 34.3 °F 100% 30.20 in 3.0 mi Calm Calm - N/A   Clear
5:55 AM 34.2 °F - 34.2 °F 100% 30.21 in 10.0 mi Calm Calm - N/A   Clear
6:15 AM 34.2 °F - 34.2 °F 100% 30.21 in 7.0 mi Calm Calm - N/A   Clear
6:35 AM 34.0 °F - 34.0 °F 100% 30.21 in 7.0 mi Calm Calm - N/A   Clear
6:55 AM 33.6 °F - 33.6 °F 100% 30.21 in 4.0 mi Calm Calm - N/A   Clear
7:15 AM 34.2 °F - 34.2 °F 100% 30.21 in 3.0 mi Calm Calm - N/A   Clear
7:35 AM 35.6 °F - 35.6 °F 100% 30.21 in 5.0 mi Calm Calm - N/A   Clear
7:55 AM 36.5 °F - 36.5 °F 100% 30.21 in 10.0 mi Calm Calm - N/A   Clear
8:15 AM 37.8 °F - 37.8 °F 100% 30.21 in 10.0 mi Calm Calm - N/A   Clear
8:35 AM 39.9 °F - 38.7 °F 95% 30.21 in 10.0 mi Calm Calm - N/A   Clear
8:55 AM 41.5 °F 39.6 °F 38.8 °F 90% 30.21 in 10.0 mi SW 3.5 mph - N/A   Clear
9:15 AM 43.2 °F - 38.5 °F 84% 30.21 in 10.0 mi Calm Calm - N/A   Clear
9:35 AM 44.6 °F 43.1 °F 38.8 °F 80% 30.22 in 10.0 mi SSW 3.5 mph - N/A   Clear
9:55 AM 46.4 °F 44.3 °F 34.9 °F 64% 30.22 in 10.0 mi South 4.6 mph - N/A   Clear
10:15 AM 47.3 °F - 34.2 °F 60% 30.22 in 10.0 mi SSW 4.6 mph - N/A   Clear
10:35 AM 48.4 °F - 32.9 °F 55% 30.23 in 10.0 mi SW 4.6 mph - N/A   Clear
10:55 AM 48.4 °F - 30.4 °F 50% 30.22 in 10.0 mi West 5.8 mph - N/A   Clear
11:15 AM 49.3 °F - 31.6 °F 51% 30.22 in 10.0 mi SW 6.9 mph - N/A   Clear
11:35 AM 49.8 °F - 31.3 °F 49% 30.21 in 10.0 mi SW 4.6 mph - N/A   Clear
11:55 AM 51.1 °F - 30.9 °F 46% 30.20 in 10.0 mi West 3.5 mph - N/A   Clear
12:15 PM 52.0 °F - 30.0 °F 43% 30.20 in 10.0 mi West 3.5 mph - N/A   Clear
12:35 PM 52.2 °F - 30.2 °F 43% 30.19 in 10.0 mi SW 5.8 mph - N/A   Clear
12:55 PM 52.3 °F - 30.0 °F 42% 30.18 in 10.0 mi Calm Calm - N/A   Clear
1:15 PM 52.9 °F - 29.5 °F 41% 30.16 in 10.0 mi SSW 4.6 mph - N/A   Clear
1:35 PM 54.5 °F - 31.3 °F 41% 30.15 in 10.0 mi WSW 5.8 mph - N/A   Clear
1:55 PM 54.7 °F - 31.3 °F 41% 30.14 in 10.0 mi SW 4.6 mph - N/A   Clear
2:15 PM 55.4 °F - 32.2 °F 41% 30.12 in 10.0 mi South 3.5 mph - N/A   Clear
2:35 PM 55.4 °F - 29.5 °F 37% 30.11 in 10.0 mi SSW 4.6 mph - N/A   Clear
2:55 PM 56.1 °F - 32.0 °F 40% 30.11 in 10.0 mi Calm Calm - N/A   Clear
3:15 PM 56.7 °F - 31.6 °F 39% 30.09 in 10.0 mi SW 4.6 mph - N/A   Clear
3:35 PM 56.7 °F - 32.0 °F 39% 30.08 in 10.0 mi South 5.8 mph - N/A   Clear
3:55 PM 57.4 °F - 31.6 °F 38% 30.08 in 10.0 mi South 5.8 mph - N/A   Clear
4:15 PM 57.0 °F - 31.8 °F 38% 30.07 in 10.0 mi South 8.1 mph - N/A   Clear
4:35 PM 57.2 °F - 31.6 °F 38% 30.06 in 10.0 mi South 8.1 mph - N/A   Clear
4:55 PM 57.2 °F - 33.1 °F 40% 30.06 in 10.0 mi South 6.9 mph - N/A   Clear
5:15 PM 56.3 °F - 32.0 °F 40% 30.06 in 10.0 mi South 5.8 mph - N/A   Clear
5:35 PM 55.6 °F - 32.7 °F 42% 30.06 in 10.0 mi South 5.8 mph - N/A   Clear
5:55 PM 54.7 °F - 32.5 °F 43% 30.05 in 10.0 mi South 4.6 mph - N/A   Clear
6:15 PM 52.7 °F - 34.2 °F 49% 30.06 in 10.0 mi Calm Calm - N/A   Clear
6:35 PM 50.5 °F - 34.9 °F 55% 30.06 in 10.0 mi Calm Calm - N/A   Clear
6:55 PM 48.7 °F - 35.1 °F 59% 30.05 in 10.0 mi Calm Calm - N/A   Clear
7:15 PM 43.3 °F - 39.4 °F 86% 30.05 in 10.0 mi Calm Calm - N/A   Clear
7:35 PM 42.4 °F - 39.4 °F 89% 30.06 in 10.0 mi Calm Calm - N/A   Clear
7:55 PM 42.4 °F - 40.1 °F 91% 30.06 in 10.0 mi Calm Calm - N/A   Clear
8:15 PM 44.4 °F - 37.9 °F 78% 30.06 in 10.0 mi Calm Calm - N/A   Clear
8:35 PM 45.0 °F - 36.9 °F 73% 30.06 in 10.0 mi Calm Calm - N/A   Clear
8:55 PM 45.5 °F 44.2 °F 36.9 °F 72% 30.06 in 10.0 mi South 3.5 mph - N/A   Clear
9:15 PM 45.1 °F 43.7 °F 36.5 °F 72% 30.06 in 10.0 mi South 3.5 mph - N/A   Clear
9:35 PM 44.6 °F 43.1 °F 36.3 °F 73% 30.05 in 10.0 mi South 3.5 mph - N/A   Clear
9:55 PM 44.2 °F - 36.1 °F 73% 30.05 in 10.0 mi Calm Calm - N/A   Clear
10:15 PM 43.7 °F 42.1 °F 36.5 °F 76% 30.04 in 10.0 mi South 3.5 mph - N/A   Clear
10:35 PM 43.2 °F - 36.1 °F 76% 30.04 in 10.0 mi Calm Calm - N/A   Clear
10:55 PM 43.7 °F - 35.8 °F 74% 30.04 in 10.0 mi Calm Calm - N/A   Clear
11:15 PM 43.3 °F - 35.6 °F 74% 30.04 in 10.0 mi Calm Calm - N/A   Clear
11:35 PM 42.3 °F - 35.8 °F 78% 30.04 in 10.0 mi Calm Calm - N/A   Clear
11:55 PM 41.4 °F - 35.8 °F 81% 30.04 in 10.0 mi Calm Calm - N/A   Clear